This is the latest recevied weather packets stored in our database for station/object YO6LRV-3. If no packets are shown the sender has not sent any weather packets the latest 10 day(s).
| Time | Temp. | Humidity | Pressure | Rain* | Wind** | Luminosity | Snow |
|---|---|---|---|---|---|---|---|
| 1777612859 | 2.22° C | 70% | 1023.6 hPa | - | - | - | - |
| 1777611958 | 2.22° C | 71% | 1023.5 hPa | - | - | - | - |
| 1777611058 | 2.22° C | 68% | 1023.5 hPa | - | - | - | - |
| 1777610158 | 1.67° C | 68% | 1023.4 hPa | - | - | - | - |
| 1777609321 | 1.67° C | 69% | 1023.3 hPa | - | - | - | - |
| 1777609258 | 1.67° C | 69% | 1023.3 hPa | - | - | - | - |
| 1777608358 | 1.67° C | 71% | 1023.2 hPa | - | - | - | - |
| 1777607458 | 1.67° C | 71% | 1023.3 hPa | - | - | - | - |
| 1777606558 | 1.67° C | 70% | 1023.2 hPa | - | - | - | - |
| 1777605658 | 1.67° C | 69% | 1023.2 hPa | - | - | - | - |
| 1777604757 | 1.67° C | 68% | 1023.2 hPa | - | - | - | - |
| 1777603857 | 1.67° C | 69% | 1023.2 hPa | - | - | - | - |
| 1777602957 | 1.67° C | 69% | 1023.1 hPa | - | - | - | - |
| 1777602057 | 2.22° C | 69% | 1023.1 hPa | - | - | - | - |
| 1777601157 | 2.22° C | 68% | 1023.2 hPa | - | - | - | - |
| 1777600257 | 2.22° C | 68% | 1023.4 hPa | - | - | - | - |
| 1777599357 | 2.78° C | 67% | 1023.5 hPa | - | - | - | - |
| 1777598457 | 2.78° C | 67% | 1023.4 hPa | - | - | - | - |
| 1777597559 | 2.78° C | 66% | 1023.7 hPa | - | - | - | - |
| 1777596659 | 2.78° C | 65% | 1023.6 hPa | - | - | - | - |
| 1777595759 | 2.78° C | 65% | 1023.5 hPa | - | - | - | - |
| 1777594858 | 3.33° C | 65% | 1023.6 hPa | - | - | - | - |
| 1777593958 | 3.33° C | 67% | 1023.6 hPa | - | - | - | - |
| 1777593058 | 3.33° C | 67% | 1023.6 hPa | - | - | - | - |
| 1777592158 | 3.33° C | 65% | 1023.7 hPa | - | - | - | - |
* Rain since midnight (hover to see other rain measurements)
** Current wind speed in m/s (hover to see current wind gust speed)